{"data":{"norad_id":45859,"intl_designator":"2020-043A","name":"SHIYAN-6 02 (SY-6 02)","alt_names":[],"object_type":"PAYLOAD","status":"ACTIVE","operator":null,"country":"PRC","launch_date":"2020-07-04","launch_site_code":"JSC","launch_vehicle":null,"mission":null,"orbit_class":"UNKNOWN","rcs_meters":null,"size_class":null,"mass_kg":null,"dimensions":null,"purposes":[],"wikipedia_slug":null,"has_3d_model":false,"image_url":null,"decayed_at":null,"tle_current":{"epoch":"2026-09-20T05:22:35.944032Z","epoch_age_seconds":94720,"freshness":"FRESH","line1":"1 45859U 20043A   26263.22402713  .00000122  00000+0  32347-4 0  9997","line2":"2 45859  98.1871 273.5251 0127480 289.7874  68.9618 14.60987016330735","mean_motion":14.60987016,"eccentricity":0.012748,"inclination_deg":98.1871,"raan_deg":273.5251,"arg_perigee_deg":289.7874,"mean_anomaly_deg":68.9618,"bstar":3.2347e-5,"rev_number":33073,"period_min":98.563504276892,"perigee_km":599.88433034054,"apogee_km":780.09326568669,"semimajor_km":7068.1257980136,"source":"CELESTRAK","updated_at":"2026-09-20T09:00:14.715657Z"}}}